Regional Weather Roundup
Issued by NWS Cleveland, OH

Home | Current Version | Previous Version | Graphics & Text | Print | Product List | Glossary On
Versions: 1 2 3 4 5 6 7 8 9 10 11 12 13 14 15 16 17 18 19 20 21 22 23 24 25 26 27 28 29 30 31 32 33 34 35 36 37 38 39 40 41 42 43 44 45 46 47 48 49 50
000
ASUS41 KCLE 121302
RWRCLE
OHIO REGIONAL WEATHER ROUNDUP
NATIONAL WEATHER SERVICE CLEVELAND, OH
800 AM EST TUE DEC 12 2017

NOTE: "FAIR" INDICATES FEW OR NO CLOUDS BELOW 12,000 FEET WITH NO
SIGNIFICANT WEATHER AND/OR OBSTRUCTIONS TO VISIBILITY.

OHZ001>008-015>018-024>027-034-035-043-044-121400-
   NORTHWEST OHIO

CITY           SKY/WX    TMP DP  RH WIND       PRES   REMARKS
DEFIANCE       CLEAR     21  10  62 NW16G24   29.90R WCI   7
FINDLAY        CLEAR     23  10  57 NW20G25   29.84R WCI   8
TOLEDO EXPRESS MOCLDY    22  11  62 NW13G23   29.85R WCI  10
TOLEDO EXEC    CLOUDY    24  13  62 NW23G35   29.85R WCI   9
LIMA           CLOUDY    25  10  53 NW24G33   29.85R WCI   9
$$

OHZ009>014-019>023-028>033-038-089-121400-
   NORTHEAST OHIO

CITY           SKY/WX    TMP DP  RH WIND       PRES   REMARKS
CLE-HOPKINS    FLURRIES  29  23  78 NW15G35   29.75R WCI  18
CLE-LAKEFRONT  LGT SNOW  29  22  75 NW25G36   29.71R WCI  14
CUY CO. ARPT   LGT SNOW  28  25  86 N17       29.71R WCI  16
LORAIN-ELYRIA  LGT SNOW  27  17  66 NW18G28   29.75R WCI  14
ASHTABULA      SNOW      27  25  92 NW14G26   29.66R VSB 1/2 WCI  16
AKRON-CANTON   LGT SNOW  29  22  75 NW14G25   29.68R BLWGSNOWWCI  18
WOOSTER        FLURRIES  27  22  81 NW17G30   29.73R WCI  14
MANSFIELD      FLURRIES  25  21  85 NW16G29   29.74R WCI  12
YOUNGSTOWN     LGT SNOW  30  25  81 W16G24    29.63R WCI  19
$$

OHZ042-051>053-060>062-070>072-077>081-121400-
  SOUTHWEST OHIO

CITY           SKY/WX    TMP DP  RH WIND       PRES   REMARKS
CINC-COVINGTON FLURRIES  31  27  85 NW17G29   29.89R WCI  19
CINC-LUNKEN    FLURRIES  33  27  78 NW10      29.91R WCI  25
HAMILTON       FLURRIES  32  27  81 NW15G22   29.91R WCI  22
DAYTON         CLOUDY    27  20  75 NW18      29.86R WCI  14
WRIGHT-PAT AFB LGT SNOW  28  27  93 NW21G39   29.85R BLWGSNOWWCI  15
DAYTON GENERAL LGT SNOW  29  24  82 NW17G25   29.86R WCI  17
WILMINGTON     FLURRIES  30  28  92 NW15G24   29.83R WCI  19
$$

OHZ036-037-039>041-045>050-054>059-063>069-073>076-082>088-121400-
  CENTRAL AND SOUTHEAST OHIO

CITY           SKY/WX    TMP DP  RH WIND       PRES   REMARKS
COLUMBUS       FLURRIES  31  27  85 NW21G28   29.78R WCI  18
OSU AIRPORT    LGT SNOW  28  25  88 NW20G32   29.80R FOG     WCI  15
BOLTON FIELD   FLURRIES  28  23  80 NW21G31   29.81R WCI  15
RICKENBACK AFB LGT SNOW  31  30  95 NW14G21   29.79R WCI  21
NEWARK         CLOUDY    31  25  78 NW13      29.76R WCI  21
MARION         NOT AVBL
LANCASTER      LGT SNOW  31  28  89 NW12      29.78R FOG     WCI  22
ZANESVILLE     FLURRIES  33  28  81 W9        29.74R WCI  25
NEW PHILLY     NOT AVBL
$$



USA.gov is the U.S. government's official web portal to all federal, state and local government web resources and services.